This is the latest recevied weather packets stored in our database for station/object DF9PM-13. If no packets are shown the sender has not sent any weather packets the latest 10 day(s).
| Time | Temp. | Humidity | Pressure | Rain* | Wind** | Luminosity | Snow |
|---|---|---|---|---|---|---|---|
| 1777463631 | 21.67° C | 18% | 1023.2 hPa | - | - | - | - |
| 1777463331 | 21.67° C | 18% | 1023.2 hPa | - | - | - | - |
| 1777463031 | 21.67° C | 17% | 1023.3 hPa | - | - | - | - |
| 1777462731 | 21.11° C | 18% | 1023.3 hPa | - | - | - | - |
| 1777462431 | 21.11° C | 18% | 1023.2 hPa | - | - | - | - |
| 1777462131 | 20.56° C | 18% | 1023.3 hPa | - | - | - | - |
| 1777461831 | 21.11° C | 18% | 1023.3 hPa | - | - | - | - |
| 1777461531 | 21.11° C | 19% | 1023.3 hPa | - | - | - | - |
| 1777461230 | 21.67° C | 18% | 1023.4 hPa | - | - | - | - |
| 1777460930 | 22.22° C | 18% | 1023.3 hPa | - | - | - | - |
| 1777460630 | 20.56° C | 18% | 1023.4 hPa | - | - | - | - |
| 1777460330 | 21.67° C | 18% | 1023.3 hPa | - | - | - | - |
| 1777460030 | 21.11° C | 18% | 1023.4 hPa | - | - | - | - |
| 1777459730 | 20° C | 19% | 1023.4 hPa | - | - | - | - |
| 1777459430 | 20° C | 19% | 1023.4 hPa | - | - | - | - |
| 1777459130 | 20.56° C | 19% | 1023.4 hPa | - | - | - | - |
| 1777458830 | 21.11° C | 19% | 1023.3 hPa | - | - | - | - |
| 1777458529 | 21.11° C | 20% | 1023.4 hPa | - | - | - | - |
| 1777458230 | 20° C | 20% | 1023.4 hPa | - | - | - | - |
| 1777457930 | 20° C | 21% | 1023.4 hPa | - | - | - | - |
| 1777457629 | 20° C | 22% | 1023.4 hPa | - | - | - | - |
| 1777457329 | 19.44° C | 23% | 1023.3 hPa | - | - | - | - |
| 1777457029 | 18.89° C | 24% | 1023.5 hPa | - | - | - | - |
| 1777456729 | 19.44° C | 23% | 1023.5 hPa | - | - | - | - |
| 1777456129 | 20° C | 24% | 1023.6 hPa | - | - | - | - |
* Rain since midnight (hover to see other rain measurements)
** Current wind speed in m/s (hover to see current wind gust speed)